Weather History for KBFL - May, 2013

Change the Weather History Date:

Friday, May 24, 2013

  Actual Average Record
Temperature  
Mean Temperature 68 °F 72 °F  
Max Temperature 81 °F 86 °F 107 °F (1982)
Min Temperature 54 °F 59 °F 41 °F (1916)
Degree Days  
Heating Degree Days 0    
Month to date heating degree days 6  
Since 1 July heating degree days 1829  
Cooling Degree Days 3    
Month to date cooling degree days 209  
Year to date cooling degree days 339  
Growing Degree Days 18 (Base 50)    
Moisture  
Dew Point 34 °F    
Average Humidity 32    
Maximum Humidity 47    
Minimum Humidity 17    
Precipitation  
Precipitation 0.00 in 0.00 in 0.03 in (1980)
Month to date precipitation 0.05 0.15  
Year to date precipitation 2.36 4.28  
Since 1 July precipitation 3.15  
Snow  
Snow 0.00 in - - ()
Month to date snowfall 0.0  
Since 1 July snowfall 0.0  
Snow Depth 0.00 in    
Sea Level Pressure  
Sea Level Pressure 29.93 in    
Wind  
Wind Speed 5 mph (NW)    
Max Wind Speed 13 mph    
Max Gust Speed 17 mph    
Visibility 10 miles    
Events      
T = Trace of Precipitation, MM = Missing Value Source: NWS Daily Summary

Daily Weather History Graph

Daily Weather History Graph

Search for Another Location

Airport or City:

Trip Planner

Search our weather history database for the weather conditions in past years. The results will help you decide how hot, cold, wet, or windy it might be!

Date:

Astronomy

May. 24, 2013 Rise Set
Actual Time 5:45 AM PDT 8:00 PM PDT
Civil Twilight 5:16 AM PDT 8:29 PM PDT
Nautical Twilight 4:41 AM PDT 9:05 PM PDT
Astronomical Twilight 4:02 AM PDT 9:44 PM PDT
Moon 7:49 PM PDT (5/24) 5:20 AM PDT (5/24)
Length of Visible Light 15h 13m
Length of Day
14h 15m
Full, 100% of the Moon is Illuminated
May 24
Full
May 24
Full
May 31
Last Quarter
Jun 8
New
Jun 16
First Quarter

Hourly Weather History & Observations

Time (PDT) Temp. Dew Point Humidity Pressure Visibility Wind Dir Wind Speed Gust Speed Precip Events Conditions
12:54 AM 60.1 °F 28.0 °F 30% 29.94 in 10.0 mi Calm Calm - N/A   Clear
1:54 AM 55.0 °F 35.1 °F 47% 29.94 in 10.0 mi Calm Calm - N/A   Clear
2:54 AM 57.0 °F 32.0 °F 39% 29.94 in 10.0 mi North 5.8 mph - N/A   Clear
3:54 AM 55.0 °F 34.0 °F 45% 29.94 in 10.0 mi West 4.6 mph - N/A   Clear
4:54 AM 55.0 °F 33.1 °F 43% 29.95 in 10.0 mi Calm Calm - N/A   Clear
5:54 AM 54.0 °F 30.0 °F 40% 29.96 in 10.0 mi Calm Calm - N/A   Clear
6:54 AM 57.9 °F 30.0 °F 35% 29.97 in 10.0 mi ESE 4.6 mph - N/A   Clear
7:54 AM 60.1 °F 33.1 °F 36% 29.98 in 10.0 mi ESE 5.8 mph - N/A   Clear
8:54 AM 62.1 °F 35.1 °F 37% 29.99 in 10.0 mi SSE 3.5 mph - N/A   Clear
9:54 AM 66.0 °F 33.1 °F 29% 29.98 in 10.0 mi Calm Calm - N/A   Clear
10:54 AM 70.0 °F 35.1 °F 28% 29.97 in 10.0 mi West 8.1 mph - N/A   Clear
11:54 AM 72.0 °F 36.0 °F 27% 29.96 in 10.0 mi West 8.1 mph - N/A   Clear
12:54 PM 75.0 °F 35.1 °F 23% 29.94 in 10.0 mi NW 8.1 mph - N/A   Clear
1:54 PM 78.1 °F 35.1 °F 21% 29.93 in 10.0 mi WNW 8.1 mph - N/A   Clear
2:54 PM 79.0 °F 35.1 °F 20% 29.91 in 10.0 mi North 8.1 mph - N/A   Clear
3:54 PM 80.1 °F 35.1 °F 20% 29.89 in 10.0 mi WNW 8.1 mph - N/A   Clear
4:54 PM 81.0 °F 32.0 °F 17% 29.87 in 10.0 mi Calm Calm - N/A   Clear
5:54 PM 80.1 °F 32.0 °F 17% 29.86 in 10.0 mi WNW 9.2 mph - N/A   Clear
6:54 PM 79.0 °F 33.1 °F 19% 29.86 in 10.0 mi WNW 5.8 mph - N/A   Clear
7:54 PM 75.9 °F 34.0 °F 22% 29.86 in 10.0 mi WNW 5.8 mph - N/A   Clear
8:54 PM 72.0 °F 37.0 °F 28% 29.87 in 10.0 mi North 3.5 mph - N/A   Clear
9:54 PM 71.1 °F 34.0 °F 26% 29.89 in 10.0 mi Calm Calm - N/A   Clear
10:54 PM 66.0 °F 39.0 °F 37% 29.91 in 10.0 mi NNW 6.9 mph - N/A   Clear
11:54 PM 64.9 °F 35.1 °F 33% 29.91 in 10.0 mi North 8.1 mph - N/A   Clear